Radiation Dose at Monitoring Post of Fukushima Daini Nuclear Power Station
Date,Time,MP-1(microSv/h),MP-2(microSv/h),MP-3(microSv/h),MP-4(microSv/h),MP-5(microSv/h),MP-6(microSv/h),MP-7(microSv/h),Wind Direction,Wind Velocity(m/s),Rain
2018/02/18,00:00,0.345,0.210,0.346,0.326,0.309,0.172,0.104,north,5.6,Yes
2018/02/18,00:10,0.345,0.209,0.344,0.327,0.308,0.172,0.103,north-northwest,5.4,No
2018/02/18,00:20,0.343,0.209,0.344,0.325,0.307,0.171,0.104,north-northwest,3.5,No
2018/02/18,00:30,0.342,0.209,0.345,0.327,0.308,0.172,0.104,north-northwest,3.3,No
2018/02/18,00:40,0.344,0.209,0.345,0.327,0.307,0.172,0.102,north-northwest,3.8,No
2018/02/18,00:50,0.343,0.209,0.344,0.326,0.307,0.172,0.103,northwest,3.4,No
2018/02/18,01:00,0.345,0.209,0.345,0.325,0.306,0.172,0.103,northwest,3.4,No
2018/02/18,01:10,0.344,0.209,0.344,0.324,0.308,0.171,0.103,northwest,3.7,Yes
2018/02/18,01:20,0.342,0.209,0.344,0.326,0.307,0.171,0.103,west-northwest,3.7,Yes
2018/02/18,01:30,0.341,0.209,0.345,0.325,0.307,0.170,0.103,west-northwest,2.8,No
2018/02/18,01:40,0.343,0.209,0.343,0.326,0.307,0.172,0.104,west-northwest,2.5,No
2018/02/18,01:50,0.342,0.210,0.345,0.325,0.306,0.171,0.103,west-northwest,2.4,No
2018/02/18,02:00,0.343,0.208,0.343,0.326,0.306,0.171,0.103,west-northwest,2.9,No
2018/02/18,02:10,0.343,0.208,0.346,0.324,0.307,0.171,0.103,northwest,3.4,No
2018/02/18,02:20,0.343,0.209,0.343,0.324,0.306,0.170,0.103,west-northwest,3.8,No
2018/02/18,02:30,0.342,0.208,0.343,0.325,0.305,0.171,0.102,west-northwest,4.7,No
2018/02/18,02:40,0.344,0.209,0.343,0.326,0.307,0.170,0.103,west-northwest,4.2,No
2018/02/18,02:50,0.342,0.209,0.344,0.325,0.305,0.171,0.102,west-northwest,5.4,No
2018/02/18,03:00,0.342,0.209,0.343,0.326,0.306,0.171,0.102,west-northwest,6.0,No
2018/02/18,03:10,0.341,0.209,0.344,0.325,0.307,0.171,0.103,northwest,6.2,No
2018/02/18,03:20,0.343,0.209,0.345,0.324,0.306,0.171,0.103,north-northwest,5.0,No
2018/02/18,03:30,0.344,0.209,0.343,0.325,0.306,0.170,0.102,north,5.6,No
2018/02/18,03:40,0.342,0.208,0.345,0.326,0.307,0.171,0.102,north,5.9,No
2018/02/18,03:50,0.342,0.209,0.343,0.324,0.306,0.171,0.102,north,6.6,No
2018/02/18,04:00,0.342,0.208,0.344,0.325,0.307,0.170,0.102,north,6.5,No
2018/02/18,04:10,0.342,0.210,0.343,0.326,0.306,0.170,0.102,north,7.9,No
2018/02/18,04:20,0.343,0.208,0.342,0.325,0.306,0.171,0.102,north,9.2,No
2018/02/18,04:30,0.342,0.208,0.344,0.325,0.307,0.170,0.102,north,8.0,No
2018/02/18,04:40,0.342,0.208,0.344,0.324,0.306,0.170,0.103,north,7.1,No
2018/02/18,04:50,0.344,0.208,0.344,0.325,0.307,0.171,0.102,north,6.8,No
2018/02/18,05:00,0.343,0.209,0.345,0.325,0.306,0.171,0.103,north,4.8,No
2018/02/18,05:10,0.341,0.208,0.343,0.325,0.305,0.170,0.103,north-northwest,6.8,No
2018/02/18,05:20,0.343,0.208,0.343,0.325,0.306,0.171,0.102,north-northwest,7.0,No
2018/02/18,05:30,0.341,0.208,0.345,0.326,0.306,0.171,0.102,north-northwest,7.4,No
2018/02/18,05:40,0.343,0.209,0.343,0.326,0.305,0.170,0.102,north-northwest,5.7,No
2018/02/18,05:50,0.343,0.208,0.343,0.324,0.307,0.171,0.102,north,7.0,No
2018/02/18,06:00,0.343,0.208,0.345,0.324,0.306,0.170,0.102,north,7.0,No
2018/02/18,06:10,0.342,0.208,0.344,0.325,0.307,0.170,0.103,north,4.9,No
2018/02/18,06:20,0.343,0.209,0.344,0.325,0.305,0.170,0.102,north,5.7,No
2018/02/18,06:30,0.342,0.209,0.345,0.326,0.306,0.170,0.102,north,4.0,No
2018/02/18,06:40,0.341,0.208,0.343,0.325,0.306,0.170,0.103,north-northwest,3.7,No
2018/02/18,06:50,0.342,0.208,0.342,0.326,0.306,0.169,0.102,north-northwest,3.0,No
2018/02/18,07:00,0.342,0.207,0.343,0.325,0.307,0.170,0.103,north,4.0,No
2018/02/18,07:10,0.344,0.208,0.344,0.326,0.306,0.170,0.103,north-northwest,6.3,No
2018/02/18,07:20,0.342,0.208,0.345,0.323,0.305,0.170,0.102,north-northwest,7.0,No
2018/02/18,07:30,0.342,0.207,0.343,0.323,0.306,0.169,0.102,north,7.1,No
2018/02/18,07:40,0.341,0.209,0.343,0.324,0.305,0.171,0.102,north,8.7,No
2018/02/18,07:50,0.343,0.209,0.344,0.325,0.305,0.171,0.102,north-northwest,6.4,No
2018/02/18,08:00,0.341,0.208,0.342,0.324,0.306,0.170,0.102,north,7.8,No
2018/02/18,08:10,0.341,0.208,0.344,0.324,0.306,0.170,0.102,north-northwest,5.6,No
2018/02/18,08:20,0.342,0.208,0.343,0.325,0.306,0.170,0.102,north-northwest,4.9,No
2018/02/18,08:30,0.342,0.208,0.343,0.324,0.306,0.171,0.103,north-northwest,5.4,No
2018/02/18,08:40,0.343,0.208,0.344,0.325,0.306,0.169,0.102,north-northwest,5.5,No
2018/02/18,08:50,0.343,0.209,0.343,0.325,0.306,0.170,0.101,north-northwest,5.4,No
2018/02/18,09:00,0.340,0.208,0.343,0.323,0.307,0.171,0.102,north-northwest,5.0,No
2018/02/18,09:10,0.342,0.207,0.343,0.325,0.306,0.171,0.103,north-northwest,5.0,No
2018/02/18,09:20,0.341,0.206,0.342,0.324,0.307,0.170,0.102,north-northwest,4.4,No
2018/02/18,09:30,0.342,0.207,0.342,0.322,0.307,0.171,0.102,north-northwest,5.6,No
2018/02/18,09:40,0.340,0.208,0.345,0.323,0.308,0.170,0.102,north-northwest,8.1,No
2018/02/18,09:50,0.342,0.208,0.344,0.324,0.306,0.170,0.102,north,6.5,No
2018/02/18,10:00,0.342,0.207,0.344,0.323,0.306,0.171,0.101,north-northwest,6.3,No
2018/02/18,10:10,0.342,0.208,0.343,0.323,0.306,0.170,0.101,north-northwest,6.5,No
2018/02/18,10:20,0.342,0.208,0.344,0.324,0.307,0.171,0.102,north-northwest,7.3,No
2018/02/18,10:30,0.341,0.208,0.344,0.324,0.306,0.170,0.103,north-northwest,5.7,No
2018/02/18,10:40,0.341,0.208,0.343,0.324,0.307,0.171,0.102,north-northwest,7.3,No
2018/02/18,10:50,0.341,0.208,0.342,0.325,0.307,0.171,0.102,northwest,5.1,No
2018/02/18,11:00,0.341,0.209,0.343,0.325,0.307,0.172,0.101,northwest,9.5,No
2018/02/18,11:10,0.341,0.209,0.344,0.325,0.306,0.171,0.102,northwest,6.3,No
2018/02/18,11:20,0.342,0.209,0.344,0.324,0.306,0.171,0.103,northwest,7.5,No
2018/02/18,11:30,0.343,0.209,0.343,0.326,0.309,0.171,0.102,west-northwest,6.5,No
2018/02/18,11:40,0.341,0.209,0.343,0.323,0.308,0.171,0.102,northwest,5.7,No
2018/02/18,11:50,0.341,0.208,0.344,0.325,0.307,0.171,0.102,northwest,6.8,No
2018/02/18,12:00,0.344,0.207,0.342,0.324,0.308,0.170,0.102,northwest,9.8,No
2018/02/18,12:10,0.341,0.208,0.343,0.325,0.306,0.171,0.101,west-northwest,10.6,No
2018/02/18,12:20,0.341,0.209,0.342,0.324,0.307,0.170,0.102,northwest,9.3,No
2018/02/18,12:30,0.342,0.208,0.342,0.324,0.307,0.171,0.101,west-northwest,8.2,No
2018/02/18,12:40,0.342,0.207,0.343,0.324,0.306,0.171,0.101,north-northwest,4.6,No
2018/02/18,12:50,0.341,0.208,0.342,0.327,0.307,0.171,0.101,northwest,7.6,No
2018/02/18,13:00,0.342,0.208,0.344,0.324,0.310,0.170,0.102,northwest,8.7,No
2018/02/18,13:10,0.342,0.209,0.343,0.326,0.306,0.172,0.102,west-northwest,6.2,No
2018/02/18,13:20,0.342,0.208,0.345,0.326,0.307,0.171,0.101,northwest,5.8,No
2018/02/18,13:30,0.343,0.208,0.344,0.325,0.309,0.171,0.103,north-northwest,7.4,No
2018/02/18,13:40,0.343,0.208,0.342,0.325,0.307,0.170,0.102,north-northwest,6.6,No
2018/02/18,13:50,0.342,0.209,0.344,0.323,0.306,0.172,0.102,northwest,6.8,No
2018/02/18,14:00,0.341,0.209,0.344,0.325,0.310,0.172,0.103,west-northwest,6.4,No
2018/02/18,14:10,0.344,0.209,0.343,0.325,0.307,0.172,0.102,north-northwest,5.1,No
2018/02/18,14:20,0.344,0.207,0.343,0.323,0.308,0.171,0.102,northwest,8.0,No
2018/02/18,14:30,0.342,0.208,0.345,0.325,0.307,0.171,0.102,northwest,8.4,No
2018/02/18,14:40,0.342,0.207,0.344,0.325,0.306,0.171,0.102,northwest,6.3,No
2018/02/18,14:50,0.344,0.208,0.345,0.324,0.307,0.172,0.102,west-northwest,5.1,No
2018/02/18,15:00,0.343,0.209,0.344,0.326,0.309,0.171,0.103,north-northwest,5.9,No
2018/02/18,15:10,0.346,0.210,0.346,0.327,0.309,0.171,0.102,northwest,6.3,No
2018/02/18,15:20,0.343,0.209,0.347,0.327,0.308,0.171,0.102,northwest,6.2,No
2018/02/18,15:30,0.345,0.209,0.345,0.325,0.309,0.171,0.102,northwest,6.7,No
2018/02/18,15:40,0.343,0.210,0.345,0.327,0.308,0.171,0.102,west-northwest,4.6,No
2018/02/18,15:50,0.342,0.209,0.345,0.327,0.308,0.171,0.102,west-northwest,4.8,No
2018/02/18,16:00,0.343,0.210,0.345,0.325,0.310,0.171,0.102,west-northwest,3.3,No
2018/02/18,16:10,0.344,0.209,0.344,0.325,0.308,0.171,0.102,northwest,4.7,No
2018/02/18,16:20,0.345,0.209,0.344,0.326,0.308,0.171,0.102,west-northwest,6.4,No
2018/02/18,16:30,0.344,0.208,0.345,0.326,0.309,0.171,0.103,northwest,4.5,No
2018/02/18,16:40,0.343,0.209,0.344,0.326,0.309,0.172,0.103,west-northwest,3.7,No
2018/02/18,16:50,0.343,0.209,0.347,0.327,0.309,0.171,0.102,west-northwest,5.6,No
2018/02/18,17:00,0.343,0.209,0.345,0.327,0.307,0.171,0.102,north,3.3,No
2018/02/18,17:10,0.344,0.210,0.344,0.327,0.308,0.172,0.102,north,1.7,No
2018/02/18,17:20,0.345,0.210,0.345,0.326,0.308,0.172,0.102,north-northwest,2.0,No
2018/02/18,17:30,0.344,0.210,0.345,0.327,0.308,0.172,0.102,north,1.9,No
2018/02/18,17:40,0.345,0.210,0.345,0.326,0.309,0.172,0.103,north,1.6,No
2018/02/18,17:50,0.344,0.210,0.345,0.327,0.308,0.171,0.102,north-northeast,2.4,No
2018/02/18,18:00,0.343,0.210,0.346,0.325,0.308,0.171,0.103,north,2.5,No
2018/02/18,18:10,0.344,0.209,0.344,0.325,0.307,0.171,0.101,north,1.7,No
2018/02/18,18:20,0.343,0.208,0.343,0.326,0.308,0.171,0.102,north,3.8,No
2018/02/18,18:30,0.344,0.210,0.345,0.326,0.308,0.171,0.101,north,3.8,No
2018/02/18,18:40,0.343,0.209,0.344,0.325,0.306,0.171,0.102,north,4.2,No
2018/02/18,18:50,0.342,0.208,0.344,0.326,0.306,0.172,0.103,northwest,3.3,No
2018/02/18,19:00,0.344,0.208,0.345,0.325,0.306,0.171,0.102,northwest,2.3,No
2018/02/18,19:10,0.345,0.209,0.345,0.326,0.306,0.173,0.102,north,1.9,No
2018/02/18,19:20,0.344,0.209,0.346,0.327,0.307,0.170,0.103,west-northwest,1.0,No
2018/02/18,19:30,0.344,0.209,0.344,0.327,0.306,0.172,0.103,southwest,1.3,No
2018/02/18,19:40,0.343,0.209,0.343,0.325,0.307,0.170,0.102,southwest,1.2,No
2018/02/18,19:50,0.344,0.209,0.344,0.327,0.306,0.171,0.102,west-southwest,0.9,No
2018/02/18,20:00,0.342,0.209,0.346,0.325,0.306,0.169,0.102,south,0.8,No
2018/02/18,20:10,0.342,0.209,0.345,0.326,0.307,0.171,0.102,south,1.9,No
2018/02/18,20:20,0.345,0.210,0.345,0.327,0.307,0.172,0.102,south-southwest,1.4,No
2018/02/18,20:30,0.344,0.210,0.343,0.326,0.307,0.171,0.103,west-northwest,0.6,No
2018/02/18,20:40,0.343,0.209,0.344,0.325,0.306,0.171,0.103,north,1.2,No
2018/02/18,20:50,0.343,0.209,0.345,0.325,0.306,0.171,0.103,north-northwest,2.2,No
2018/02/18,21:00,0.342,0.209,0.345,0.326,0.305,0.172,0.102,north-northeast,1.9,No
2018/02/18,21:10,0.344,0.209,0.344,0.325,0.306,0.171,0.102,north-northeast,2.2,No
2018/02/18,21:20,0.344,0.209,0.346,0.327,0.306,0.171,0.102,north-northeast,2.5,No
2018/02/18,21:30,0.343,0.210,0.345,0.326,0.306,0.171,0.102,north-northeast,2.6,No
2018/02/18,21:40,0.345,0.209,0.344,0.327,0.307,0.170,0.102,north-northeast,1.9,No
2018/02/18,21:50,0.344,0.209,0.344,0.326,0.306,0.172,0.103,north,2.4,No
2018/02/18,22:00,0.343,0.209,0.344,0.326,0.305,0.171,0.102,north-northeast,1.7,No
2018/02/18,22:10,0.344,0.209,0.344,0.325,0.306,0.171,0.103,north,1.5,No
2018/02/18,22:20,0.344,0.207,0.345,0.327,0.308,0.171,0.101,north-northeast,2.1,No
2018/02/18,22:30,0.342,0.209,0.344,0.326,0.308,0.170,0.102,north-northeast,2.3,No
2018/02/18,22:40,0.342,0.209,0.345,0.326,0.306,0.171,0.102,north-northeast,2.2,No
2018/02/18,22:50,0.343,0.208,0.345,0.327,0.306,0.170,0.101,northeast,1.8,No
2018/02/18,23:00,0.341,0.209,0.345,0.326,0.305,0.171,0.102,north-northeast,2.1,No
2018/02/18,23:10,0.343,0.210,0.345,0.326,0.308,0.171,0.102,north,2.6,No
2018/02/18,23:20,0.343,0.209,0.344,0.325,0.307,0.170,0.102,north,1.8,No
2018/02/18,23:30,0.342,0.209,0.346,0.326,0.306,0.170,0.102,north-northeast,2.5,No
2018/02/18,23:40,0.344,0.209,0.344,0.327,0.308,0.171,0.101,northwest,1.6,No
2018/02/18,23:50,0.344,0.209,0.345,0.328,0.306,0.171,0.103,north,2.6,No
